Weather History for Hays, KS

Change the Weather History Date:

Thursday, February 7, 2013

  Actual Average Record
Temperature  
Mean Temperature 42 °F -  
Max Temperature 55 °F 40 °F 66 °F (2009)
Min Temperature 28 °F 19 °F -7 °F (2004)
Degree Days  
Heating Degree Days 24    
Moisture  
Dew Point 29 °F    
Average Humidity 61    
Maximum Humidity 100    
Minimum Humidity 29    
Precipitation  
Precipitation 0.00 in - - ()
Sea Level Pressure  
Sea Level Pressure 30.04 in    
Wind  
Wind Speed 11 mph (North)    
Max Wind Speed 24 mph    
Max Gust Speed 26 mph    
Visibility 9 miles    
Events      
Averages and records for this station are not official NWS values.
T = Trace of Precipitation, MM = Missing Value Source: NWS Daily Summary

Daily Weather History Graph

Daily Weather History Graph

Search for Another Location

Airport:

Trip Planner

Search our weather history database for the weather conditions in past years. The results will help you decide how hot, cold, wet, or windy it might be!

Date:

Astronomy

Feb. 07, 2013 Rise Set
Actual Time 7:37 AM CST 6:05 PM CST
Civil Twilight 7:09 AM CST 6:33 PM CST
Nautical Twilight 6:37 AM CST 7:05 PM CST
Astronomical Twilight 6:06 AM CST 7:36 PM CST
Moon 5:17 AM CST (2/7) 3:33 PM CST (2/7)
Length of Visible Light 11h 24m
Length of Day
10h 28m
Waning Crescent, 9% of the Moon is Illuminated
Feb 7
Waning Crescent
Feb 10
New
Feb 17
First Quarter
Feb 25
Full
Mar 4
Last Quarter

Hourly Weather History & Observations

Time (CST) Temp. Windchill Dew Point Humidity Pressure Visibility Wind Dir Wind Speed Gust Speed Precip Events Conditions
12:15 AM 42.8 °F 39.3 °F 42.8 °F 100% 29.85 in 0.8 mi NNW 5.8 mph - N/A   Overcast
12:35 AM 44.6 °F 41.4 °F 42.8 °F 93% 29.86 in 1.8 mi NNW 5.8 mph - N/A   Overcast
12:55 AM 44.6 °F 40.7 °F 42.8 °F 93% 29.86 in 2.5 mi North 6.9 mph - N/A   Overcast
1:15 AM 44.6 °F 42.2 °F 42.8 °F 93% 29.85 in 2.5 mi NNE 4.6 mph - N/A   Overcast
1:35 AM 44.6 °F 42.2 °F 44.6 °F 100% 29.84 in 3.0 mi North 4.6 mph - N/A   Overcast
1:55 AM 44.6 °F 40.2 °F 42.8 °F 93% 29.84 in 2.5 mi NW 8.1 mph - N/A   Scattered Clouds
2:15 AM 42.8 °F 38.0 °F 41.0 °F 93% 29.85 in 1.5 mi WNW 8.1 mph - N/A   Overcast
2:35 AM 42.8 °F 38.0 °F 41.0 °F 93% 29.86 in 0.2 mi NW 8.1 mph - N/A   Overcast
2:55 AM 44.6 °F 38.1 °F 42.8 °F 93% 29.87 in 4.0 mi NNW 13.8 mph 17.3 mph N/A   Overcast
3:15 AM 41.0 °F 35.2 °F 39.2 °F 93% 29.88 in 10.0 mi NNW 9.2 mph - N/A   Overcast
3:35 AM 39.2 °F 29.8 °F 37.4 °F 93% 29.87 in 10.0 mi North 18.4 mph 21.9 mph N/A   Overcast
3:55 AM 39.2 °F 29.3 °F 37.4 °F 93% 29.88 in 10.0 mi North 20.7 mph 26.5 mph N/A   Mostly Cloudy
4:15 AM 39.2 °F 29.0 °F 37.4 °F 93% 29.88 in 10.0 mi North 21.9 mph 25.3 mph N/A   Partly Cloudy
4:35 AM 39.2 °F 29.8 °F 35.6 °F 87% 29.90 in 10.0 mi North 18.4 mph 26.5 mph N/A   Scattered Clouds
4:55 AM 39.2 °F 29.8 °F 33.8 °F 81% 29.93 in 10.0 mi North 18.4 mph - N/A   Clear
5:15 AM 39.2 °F 30.5 °F 32.0 °F 75% 29.94 in 10.0 mi North 16.1 mph - N/A   Mostly Cloudy
5:35 AM 39.2 °F 30.5 °F 32.0 °F 75% 29.95 in 10.0 mi NNE 16.1 mph 23.0 mph N/A   Overcast
5:55 AM 41.0 °F 32.5 °F 30.2 °F 65% 29.96 in 10.0 mi NNE 17.3 mph - N/A   Overcast
6:15 AM 41.0 °F 33.1 °F 30.2 °F 65% 29.99 in 10.0 mi North 15.0 mph - N/A   Overcast
6:35 AM 41.0 °F 33.5 °F 30.2 °F 65% 30.00 in 10.0 mi North 13.8 mph - N/A   Overcast
6:55 AM 39.2 °F 31.6 °F 30.2 °F 70% 30.01 in 10.0 mi North 12.7 mph - N/A   Overcast
7:15 AM 39.2 °F 31.6 °F 30.2 °F 70% 30.01 in 10.0 mi North 12.7 mph - N/A   Mostly Cloudy
7:35 AM 39.2 °F 31.6 °F 28.4 °F 65% 30.02 in 10.0 mi North 12.7 mph - N/A   Partly Cloudy
7:55 AM 37.4 °F 30.3 °F 28.4 °F 70% 30.03 in 10.0 mi North 10.4 mph - N/A   Clear
8:15 AM 39.2 °F 34.2 °F 30.2 °F 70% 30.04 in 10.0 mi North 6.9 mph - N/A   Clear
8:35 AM 39.2 °F 32.5 °F 30.2 °F 70% 30.06 in 10.0 mi North 10.4 mph - N/A   Clear
8:55 AM 39.2 °F 32.0 °F 30.2 °F 70% 30.07 in 10.0 mi North 11.5 mph - N/A   Clear
9:15 AM 41.0 °F 33.9 °F 30.2 °F 65% 30.07 in 10.0 mi NNW 12.7 mph - N/A   Clear
9:35 AM 41.0 °F 34.3 °F 30.2 °F 65% 30.07 in 10.0 mi NNW 11.5 mph 18.4 mph N/A   Clear
9:55 AM 42.8 °F 35.8 °F 30.2 °F 61% 30.08 in 10.0 mi North 13.8 mph - N/A   Clear
10:15 AM - - - N/A% - - North - - N/A   Unknown
10:35 AM - - - N/A% - - North - - N/A   Unknown
10:55 AM - - - N/A% - - North - - N/A   Unknown
11:15 AM 48.2 °F - 19.4 °F 32% 30.10 in 10.0 mi North 19.6 mph 24.2 mph N/A   Unknown
11:35 AM 50.0 °F - 28.4 °F 43% 30.10 in 10.0 mi North 20.7 mph - N/A   Clear
11:55 AM 51.8 °F - 28.4 °F 41% 30.11 in 10.0 mi North 24.2 mph - N/A   Clear
12:15 PM 51.8 °F - 28.4 °F 41% 30.10 in 10.0 mi North 18.4 mph 25.3 mph N/A   Clear
12:35 PM 51.8 °F - 26.6 °F 38% 30.10 in 10.0 mi North 18.4 mph 24.2 mph N/A   Clear
12:55 PM 53.6 °F - 24.8 °F 33% 30.09 in 10.0 mi North 18.4 mph 24.2 mph N/A   Clear
1:15 PM 53.6 °F - 26.6 °F 35% 30.09 in 10.0 mi NNE 17.3 mph 23.0 mph N/A   Clear
1:35 PM 53.6 °F - 24.8 °F 33% 30.08 in 10.0 mi North 18.4 mph 23.0 mph N/A   Clear
1:55 PM 53.6 °F - 24.8 °F 33% 30.08 in 10.0 mi NNE 16.1 mph - N/A   Clear
2:15 PM 55.4 °F - 23.0 °F 29% 30.08 in 10.0 mi North 17.3 mph 24.2 mph N/A   Clear
2:35 PM 55.4 °F - 23.0 °F 29% 30.08 in 10.0 mi NNE 17.3 mph 21.9 mph N/A   Clear
2:55 PM 55.4 °F - 24.8 °F 31% 30.08 in 10.0 mi NNE 19.6 mph - N/A   Clear
3:15 PM 55.4 °F - 24.8 °F 31% 30.08 in 10.0 mi NNE 16.1 mph 23.0 mph N/A   Clear
3:35 PM 55.4 °F - 24.8 °F 31% 30.08 in 10.0 mi North 17.3 mph - N/A   Clear
3:55 PM 55.4 °F - 24.8 °F 31% 30.08 in 10.0 mi North 16.1 mph 21.9 mph N/A   Clear
4:15 PM 55.4 °F - 24.8 °F 31% 30.08 in 10.0 mi North 13.8 mph 18.4 mph N/A   Clear
4:35 PM 55.4 °F - 24.8 °F 31% 30.09 in 10.0 mi NNE 11.5 mph - N/A   Clear
4:55 PM 53.6 °F - 24.8 °F 33% 30.09 in 10.0 mi NNE 13.8 mph - N/A   Clear
5:35 PM 51.8 °F - 24.8 °F 35% 30.11 in 10.0 mi NNE 9.2 mph - N/A   Clear
5:55 PM 48.2 °F - 24.8 °F 40% 30.11 in 10.0 mi NE 9.2 mph - N/A   Clear
6:15 PM 44.6 °F 40.7 °F 24.8 °F 46% 30.12 in 10.0 mi NE 6.9 mph - N/A   Clear
6:35 PM 42.8 °F 38.0 °F 24.8 °F 49% 30.13 in 10.0 mi ENE 8.1 mph - N/A   Clear
6:55 PM 41.0 °F 35.8 °F 23.0 °F 49% 30.13 in 10.0 mi ENE 8.1 mph - N/A   Clear
7:15 PM 39.2 °F 33.6 °F 23.0 °F 52% 30.13 in 10.0 mi ENE 8.1 mph - N/A   Clear
7:35 PM 41.0 °F 37.1 °F 24.8 °F 53% 30.14 in 10.0 mi ENE 5.8 mph - N/A   Clear
7:55 PM 39.2 °F 37.0 °F 23.0 °F 52% 30.15 in 10.0 mi East 3.5 mph - N/A   Clear
8:15 PM 37.4 °F 32.8 °F 23.0 °F 56% 30.15 in 10.0 mi East 5.8 mph - N/A   Clear
8:35 PM 37.4 °F 34.9 °F 21.2 °F 52% 30.16 in 10.0 mi East 3.5 mph - N/A   Clear
8:55 PM 37.4 °F 33.8 °F 23.0 °F 56% 30.16 in 10.0 mi East 4.6 mph - N/A   Clear
9:15 PM 33.8 °F - 21.2 °F 60% 30.17 in 10.0 mi Calm Calm - N/A   Clear
9:35 PM 33.8 °F - 24.8 °F 70% 30.17 in 10.0 mi Calm Calm - N/A   Clear
9:55 PM 35.6 °F - 24.8 °F 65% 30.18 in 10.0 mi Calm Calm - N/A   Clear
10:15 PM 30.2 °F - 19.4 °F 64% 30.19 in 10.0 mi Calm Calm - N/A   Clear
10:35 PM 32.0 °F 28.7 °F 21.2 °F 64% 30.18 in 10.0 mi East 3.5 mph - N/A   Clear
11:15 PM 28.4 °F - 21.2 °F 74% 30.19 in 10.0 mi Calm Calm - N/A   Clear
11:35 PM 28.4 °F - 24.8 °F 86% 30.19 in 10.0 mi Calm Calm - N/A   Clear
11:55 PM 28.4 °F - 21.2 °F 74% 30.19 in 10.0 mi Calm Calm - N/A   Clear